National Weather Service Raw Text Product

Displaying AFOS PIL: RWRLUB Received: 2018-09-24 15:00 UTC


956 
ASUS44 KLUB 241501
RWRLUB
WEST TEXAS WEATHER ROUNDUP
NATIONAL WEATHER SERVICE LUBBOCK TX
1000 AM CDT MON SEP 24 2018

NOTE: "FAIR" INDICATES FEW OR NO CLOUDS BELOW 12,000 FEET WITH NO
SIGNIFICANT WEATHER AND/OR OBSTRUCTIONS TO VISIBILITY.

TXZ004-006>008-010-012-014-016-OKZ002-241600-
TEXAS PANHANDLE/OKLAHOMA PANHANDLE
  
CITY           SKY/WX    TMP DP  RH WIND       PRES   REMARKS
AMARILLO       SUNNY     66  48  52 S16       29.98F                  
BORGER         SUNNY     67  51  56 S13G18    29.94S                  
CANADIAN       SUNNY     70  62  75 SW10      29.94S                  
DALHART        SUNNY     70  38  31 SW15      29.96F                  
GUYMON         SUNNY     67  46  47 S13       29.89F                  
HEREFORD         N/A     63  49  60 SW9       30.00S                  
PERRYTON       SUNNY     67  60  77 S15       29.92S                  
$$

TXZ026-029-035-045-048-241600-
SOUTHERN PANHANDLE/SOUTH PLAINS/ROLLING PLAINS
  
CITY           SKY/WX    TMP DP  RH WIND       PRES   REMARKS
CHILDRESS      CLOUDY    69  63  81 S8        29.97F                  
LUBBOCK        MOSUNNY   67  53  61 SW8       30.00S                  
SNYDER         PTSUNNY   63  63  99 S6        30.00F                  
$$

TXZ052-054-060>062-072-078-127-140-154-169-241600-
PERMIAN BASIN/CONCHO VALLEY/BIG COUNTRY/EDWARDS PLATEAU  
  
CITY           SKY/WX    TMP DP  RH WIND       PRES   REMARKS
ABILENE        CLOUDY    67  64  90 W6        29.99R                  
BRADY          PTSUNNY   70  66  88 CALM      30.00R                  
JUNCTION       SUNNY     73  68  84 SW3       29.99S                  
MIDLAND        SUNNY     73  53  49 SW6       30.00R                  
ODESSA         SUNNY     71  51  49 SW7       30.01R                  
SAN ANGELO     FOG       64  64 100 CALM      29.98S VSB 1/2          
SONORA         SUNNY     72  66  83 S7        30.04R                  
SWEETWATER     CLOUDY    68  65  91 S7        30.03R                  
WINK             N/A     67  54  63 E3        29.98S                  
$$

TXZ055-058-074-075-080-082-241600-
FAR WEST/SOUTHWEST MOUNTAINS/TRANS PECOS
  
CITY           SKY/WX    TMP DP  RH WIND       PRES   REMARKS
ALPINE         SUNNY     72  49  44 SW6       30.13S                  
EL PASO        MOSUNNY   71  47  42 CALM      30.04R                  
FORT STOCKTON  SUNNY     70  53  54 SW10      30.00R                  
GUADALUPE PASS SUNNY     62  45  53 SW12      30.13R                  
MARFA            N/A     67  48  50 MISG        N/A                   
PRESIDIO       FAIR      71  53  52 CALM      30.04S                  
$$

TXZ014-016-019-021>030-083-241600
TEXAS TECH WEST TEXAS MESONET/TEXAS PANHANDLE/NORTHERN SOUTH PLAINS
  
CITY           SKY/WX    TMP DP  RH WIND       PRES   REMARKS
ABERNATHY 5ENE   N/A     63  56  80 S8        30.03S                  
AMARILLO 9NNE    N/A     69  46  43 S10       29.96F                  
AMARILLO 7SSE    N/A     65  49  55 S10       30.00F                  
AMHERST 1NE      N/A     63  47  57 SW7       30.03S                  
BOOTLEG 11WNW    N/A     67  44  43 SE1       30.05S                  
CANADIAN 6E      N/A     69  61  76 S15       29.94R                  
CAPROCK CYN SP   N/A     66  62  88 S8        29.99S                  
CHILDRESS 2NNE   N/A     68  61  78 S9        29.98S                  
CLARENDON 2WSW   N/A     63  59  86 S10       30.00S                  
CLAUDE 12SW      N/A     59  54  84 S9        30.00F                  
DIMMITT 2NE      N/A     62  46  55 SW9       30.02S                  
FLOYDADA 2NNE    N/A     63  60  88 S8        30.00F                  
FRIONA 2NE       N/A     67  46  46 SW6G12    30.03S                  
GOODLETT 3W      N/A     69  61  76 S7        29.96S                  
HART 3N          N/A     60  50  70 SW8       30.02S                  
HEREFORD 2NW     N/A     64  46  51 S8        30.02F                  
MCLEAN 1E        N/A     65  58  77 S16       29.98S                  
MEMPHIS 1NE      N/A     68  61  79 S8        29.98F                  
MULESHOE 2SSW    N/A     64  46  52 SW6       30.03S                  
OLTON 6S         N/A     63  51  65 SW8       30.02S                  
PALO DURO SP     N/A     64  50  62 S6        30.01S                  
PAMPA 2E         N/A     62  58  86 S17       29.99R                  
PLAINVIEW 1S     N/A     61  57  84 S7        30.02S                  
SILVERTON 7ESE   N/A     65  59  80 SW9       29.99S                  
TULIA 2ENE       N/A     63  50  62 SW12      30.02S                  
TURKEY 2WSW      N/A     67  60  80 S8        29.99S                  
UMBARGER 3NNE    N/A     63  47  56 SW12      30.00S                  
$$

TXZ033>036-039>041-045>048-241600
TEXAS TECH WEST TEXAS MESONET/SOUTH PLAINS  
  
CITY           SKY/WX    TMP DP  RH WIND       PRES   REMARKS
AIKEN 3WSW       N/A     62  59  88 S7        30.02F                  
ANDREWS 2NE      N/A     72  47  40 SW9       30.03S                  
ANTON 6SSW       N/A     64  53  66 SW6       30.02S                  
BROWNFIELD 2S    N/A     66  50  55 SW8       30.02F                  
DENVR CTY 7WNW   N/A     68  45  42 SW13      30.03F                  
GAIL 2ESE      LGT RAIN  61  59  91 SE2       30.01S                  
LAMESA 2SE       N/A     66  53  64 SW3       30.02S                  
LUBBOCK 3WNW     N/A     67  51  55 SW8       30.02S                  
MORTON 1ENE      N/A     68  48  48 SW10      30.03R                  
ODONNELL 1N      N/A     65  51  62 S3        30.02S                  
PLAINS 3N        N/A     69  45  41 SW13      30.04S                  
RALLS 1SE        N/A     62  60  93 S7        30.02F                  
REESE CENTER     N/A     63  52  67 S8        30.02F                  
SEAGRAVES 1SW    N/A     64  52  63 SW7       30.03S                  
SEMINOLE 2NNE    N/A     66  50  54 SW7       30.02S                  
SLATON 2NE       N/A     60  60  97 S5        30.02S                  
SNYDER 3E        N/A     63  61  96 S6        30.01S                  
SUNDOWN 8SW      N/A     68  46  45 SW15      30.02S                  
TAHOKA 3NNE      N/A     65  56  71 SW5       30.02S                  
WOLFFORTH 6SSW   N/A     64  52  65 SW7       30.02F                  
$$

TXZ031-032-036>038-042>044-241600-
TEXAS TECH WEST TEXAS MESONET/ROLLING PLAINS 
  
CITY           SKY/WX    TMP DP  RH WIND       PRES   REMARKS
ASPERMONT 3NE    N/A     69  65  86 S7        29.99S                  
FLUVANNA 3WNW    N/A     61  60  94 S6        30.01S                  
GRAHAM 5SSW      N/A     59  58  95 SE2       30.01S                  
GUTHRIE 10WSW    N/A     67  62  81 S8        29.98S                  
HASKELL 1NW      N/A     68  63  84 SW3       29.98S                  
JAYTON 1SSE      N/A     65  61  86 S6        29.99S                  
KNOX CITY 3NW    N/A     71  65  80 SW6       29.98S                  
LK A HENRY 1NW   N/A     66  62  86 S3        30.00S                  
NORTHFIELD 1S    N/A     68  61  77 S8        29.98S                  
ODELL 4ENE       N/A     70  66  86 SW3       29.97S                  
PADUCAH 10SW     N/A     66  64  91 S9        29.98F                  
POST 1NE         N/A     61  59  95 S3        30.00F                  
RRING SPRGS 3N   N/A     68  63  85 S10       29.99S                  
SEYMOUR 3NW      N/A     70  65  84 SW2       29.97R                  
SPUR 1W          N/A     67  61  83 S8        29.99F                  
WEINERT 2NNE     N/A     69  64  86 SW3       29.98S                  
WHITE RVR 6NE    N/A     65  60  82 S7        30.00S                  
$$

TXZ052-054-060>062-072-078-127-140-154-169-241600-
TEXAS TECH WEST TEXAS MESONET/PERMIAN BASIN/
CONCHO VALLEY/BIG COUNTRY/EDWARDS PLATEAU
  
CITY           SKY/WX    TMP DP  RH WIND       PRES   REMARKS
COYANOSA 2N      N/A     67  56  67 W3        30.00S                  
JUNCTION 1SSW    N/A     72  67  84 NW1       30.00S                  
MERTZON 3NNE     N/A     70  65  84 S7        30.01S                  
SAN ANGELO 7NW   N/A     67  64  90 SE2       30.00R                  
STRLNG CT 4WSW   N/A     63  63 100 CALM      30.02S                  
ST LAWRNCE 5SW   N/A     67  61  80 S5        30.01S                  
SWEETWATR 11SW   N/A     66  65  98 SW6       30.03R                  
WALL 1E          N/A     64  65 100 CALM      30.01S                  
$$

TXZ055-058-074-075-080-082-241600-
TEXAS TECH WEST TEXAS MESONET/FAR WEST/SOUTHWEST MOUNTAINS/TRANS PECOS
  
CITY           SKY/WX    TMP DP  RH WIND       PRES   REMARKS
PRSMN GAP BBNP   N/A     67  54  61 S5        30.03S                  
GUADLPE MTN NP   N/A     66  46  49 SW12      30.13S                  
$$